Vertical_Velocity
3 -4 -1 2 -0 -2 -1 -2 -1 -3 -1 -0 -2 1 -3 0 -0 -1 -2 -1 -0 0 0 0 -0 -1 -2 0 -1 -2 -2 -1 -2
1 3 -3 -1 1 3 -3 1 -1 -2 -0 -0 -1 -1 -2 -1 -1 1 -0 -1 -2 -0 1 -1 0 -0 -1 -2 -3 -0 -0 0 -1
-0 1 4 -4 -0 2 4 -3 -1 -3 -1 0 -1 0 -1 -3 1 -2 0 0 -1 -0 -0 -0 1 -0 1 -0 -1 1 -0 2 1
0 -1 1 5 -3 2 5 -0 -3 -2 -1 0 0 -1 -1 -1 -2 -1 0 1 -1 -2 -2 -0 -1 -0 0 2 2 -0 1 0 1
1 2 1 1 2 -1 -0 1 -0 -3 -3 -1 3 -1 0 -0 -1 -2 -1 -0 -1 0 0 0 -0 -1 -1 0 1 1 1 -1 -0
1 0 4 -0 3 2 2 2 -2 -1 -4 -2 2 1 0 -2 0 -2 -1 -0 -0 1 -1 -0 0 -1 -0 0 -0 -0 -0 -2 0
1 0 1 4 -2 3 1 4 -0 -2 -5 -1 -1 -0 -1 -0 -2 1 -1 -2 1 0 -0 -2 -2 0 0 0 -1 -0 -1 0 0
-0 2 3 3 1 0 2 1 1 0 -4 -3 -0 1 0 -2 -1 -1 0 -2 -2 1 0 -1 -1 1 0 -0 -0 -1 -0 -0 0
-2 0 2 -1 4 -1 4 1 2 3 -5 -4 -1 0 1 -0 -2 1 -3 -0 -1 -2 1 1 2 -0 -0 -1 -1 -0 0 -1 1
-1 -1 0 2 -1 2 -4 -2 0 2 -6 -4 -2 -0 -1 3 -1 0 1 -1 1 0 -0 -1 1 -0 -0 0 -1 -2 -0 0 -0
-4 -2 1 3 2 8 -6 7 2 13 8 -2 -1 -0 -1 -2 4 0 -0 1 -2 1 -0 0 0 -0 -0 1 -1 -1 -0 0 0
-2 -1 -3 0 0 -2 13 -2 2 -2 17 -4 -2 -1 0 -3 -3 -1 1 -1 -1 -2 -0 -1 -1 -1 1 0 -1 -0 -1 0 1
-5 -5 -3 -1 3 4 -7 9 -3 -2 13 12 -1 3 -1 -1 -2 -3 1 1 1 -3 -2 -0 -1 0 0 1 1 0 -2 0 -1
-4 -5 -2 2 2 1 3 17 -3 6 2 11 -4 2 1 1 -2 -0 -3 -0 -1 2 -1 -1 -1 -0 -0 0 1 -0 -1 0 -1
3 -4 -2 -1 -0 4 4 -14 6 12 11 10 10 -1 2 0 0 -0 -3 -2 -0 -0 1 1 1 0 -1 1 0 -0 -1 1 -1
-4 -1 -1 5 -0 -0 1 -8 1 5 10 7 11 9 1 1 1 -1 0 -1 -1 -1 1 1 -0 0 -0 -0 2 1 0 1 1
2 -1 2 2 -2 -1 2 -10 7 -13 8 21 18 14 6 1 -1 -1 -1 5 -1 -1 -1 1 0 -0 1 0 1 1 1 1 1
-2 -3 -9 -5 -4 -1 -1 3 4 -4 19 0 20 11 9 10 3 2 1 2 3 3 -1 -1 2 1 -0 -0 1 1 0 1 1
-6 -6 -1 -3 -3 0 6 -1 -10 9 -10 -1 20 14 2 7 5 5 -2 3 3 4 3 1 -0 3 2 1 1 -1 -0 1 1
-5 -0 -4 -0 3 0 1 -2 -7 11 -11 -4 2 9 7 10 3 8 3 -5 8 3 6 4 1 2 0 0 3 1 -0 0 1
Height
3183 3184 3184 3184 3185 3186 3185 3185 3185 3185 3187 3188 3187 3186 3186 3185 3185 3184 3184 3184 3184 3184 3184 3183 3183 3182 3182 3181 3181 3181 3181 3181 3181
3181 3182 3183 3184 3184 3185 3185 3184 3184 3184 3186 3187 3188 3187 3186 3185 3185 3185 3184 3184 3184 3184 3184 3184 3183 3183 3183 3183 3183 3182 3183 3183 3183
3178 3179 3181 3182 3183 3184 3183 3184 3183 3183 3184 3186 3187 3187 3186 3186 3186 3186 3185 3184 3184 3184 3184 3184 3184 3184 3184 3184 3184 3184 3185 3185 3185
3175 3176 3177 3180 3181 3182 3182 3182 3183 3182 3183 3185 3186 3187 3186 3186 3186 3186 3185 3185 3184 3184 3184 3185 3184 3185 3185 3186 3186 3186 3187 3186 3186
3169 3172 3174 3175 3177 3179 3180 3181 3181 3182 3181 3183 3185 3186 3186 3186 3187 3186 3186 3186 3186 3184 3185 3185 3185 3186 3187 3188 3188 3187 3187 3187 3186
3163 3166 3169 3171 3173 3175 3177 3178 3178 3178 3179 3181 3184 3185 3185 3186 3187 3186 3186 3186 3187 3186 3186 3186 3186 3187 3188 3189 3188 3188 3188 3187 3187
3155 3160 3163 3166 3169 3170 3173 3175 3175 3176 3177 3179 3182 3184 3185 3185 3186 3187 3187 3186 3187 3187 3187 3187 3188 3188 3189 3189 3189 3189 3189 3188 3187
3147 3151 3156 3160 3163 3165 3167 3170 3172 3174 3174 3177 3180 3182 3183 3184 3184 3186 3187 3186 3186 3187 3188 3188 3188 3188 3189 3189 3189 3190 3189 3189 3188
3140 3144 3148 3153 3156 3159 3162 3164 3167 3170 3170 3173 3176 3179 3181 3183 3183 3184 3185 3186 3187 3187 3188 3188 3188 3189 3189 3190 3190 3190 3189 3189 3188
3133 3135 3140 3144 3149 3152 3157 3159 3163 3166 3168 3170 3172 3176 3178 3179 3181 3181 3182 3184 3185 3186 3187 3188 3188 3189 3188 3188 3189 3189 3189 3189 3188
3128 3129 3131 3137 3142 3145 3148 3153 3158 3160 3162 3164 3168 3171 3174 3176 3176 3179 3180 3181 3183 3184 3185 3186 3187 3188 3188 3188 3187 3188 3187 3187 3187
3125 3124 3127 3131 3136 3139 3140 3146 3152 3156 3154 3156 3162 3166 3169 3172 3174 3175 3177 3180 3181 3182 3183 3185 3185 3186 3186 3186 3187 3186 3186 3186 3186
3122 3122 3123 3126 3130 3133 3135 3136 3143 3148 3149 3149 3155 3160 3164 3168 3170 3172 3174 3176 3178 3180 3181 3182 3184 3184 3185 3185 3185 3185 3185 3185 3185
3119 3119 3119 3122 3124 3128 3129 3129 3134 3139 3144 3146 3148 3153 3157 3162 3165 3168 3170 3172 3174 3176 3178 3179 3181 3182 3183 3184 3184 3184 3184 3184 3184
3114 3114 3116 3117 3118 3120 3124 3126 3124 3128 3133 3140 3141 3145 3149 3153 3158 3163 3166 3168 3170 3172 3174 3176 3178 3179 3180 3181 3182 3183 3182 3183 3182
3113 3113 3112 3111 3113 3114 3117 3121 3120 3119 3126 3133 3135 3137 3140 3145 3151 3155 3160 3164 3167 3169 3170 3172 3174 3176 3177 3178 3179 3180 3180 3180 3180
3112 3110 3108 3108 3109 3108 3109 3115 3114 3117 3122 3121 3125 3129 3134 3136 3142 3148 3154 3158 3161 3164 3167 3169 3171 3172 3173 3175 3176 3176 3177 3177 3177
3110 3108 3105 3106 3104 3104 3103 3103 3112 3115 3116 3119 3120 3122 3126 3128 3135 3142 3147 3152 3155 3158 3162 3164 3167 3169 3170 3171 3172 3173 3173 3174 3174
3107 3106 3103 3099 3099 3099 3099 3099 3104 3104 3114 3114 3115 3116 3119 3124 3127 3133 3140 3144 3149 3152 3156 3159 3161 3163 3166 3167 3168 3169 3170 3170 3170
3105 3103 3101 3099 3096 3095 3094 3096 3099 3101 3107 3110 3112 3112 3116 3118 3121 3124 3131 3135 3142 3146 3148 3151 3154 3157 3160 3162 3164 3165 3166 3166 3167